Showing default

OPS 4988 (GREB 6), 1271

Orbit data source: Space-Track

OPS 4988 (GREB 6), 1271 is an American payload satellite in LEO that was launched on Tue, 09 Mar 1965 UTC via a THOR SLV-2 AGENA D launch vehicle from the Air Force Western Test Range (AFWTR). Payload-class satellites include a variety of spacecraft equipped with specific instruments for various scientific and technological missions. These include communications satellites like Starlink; space stations such as the ISS; scientific satellites like the Hubble; Earth observation satellites from companies like Planet Labs, Umbra, and HawkEye 360; GPS; miniature CubeSats for education and research; and military/defense satellites.

Loading next visibility...
Identifier
1271, 1965-016A
Orbit
LEO
Country
Flag of USUS
Related business
Manufacturer
NRL
Mission
Spacecraft
Bus & Motor
NRL 24", Unknown motor
Mass
48 kg wet, 48 kg dry
Launch date (UTC)
1965-03-09 (61 years ago)
Launch vehicle
THOR SLV-2 AGENA D
Launch site
Air Force Western Test Range (AFWTR)
Object type
Payload
Rocket body
Debris
Shape & HBR
Unknown
Radar Cross Section
Medium (>0.1 m² and <1 m²)

Expand to show TLE details & history
Last TLE update: 10 hours ago

TLE from 10 hours ago
0 OPS 4988 (GREB 6)
1 01271U 65016A   26174.93090874  .00000041  00000-0  67159-4 0  9996
2 01271  70.0783 143.7387 0018511  56.5804  11.4875 13.96661012119759
Epoch: 2026-06-23T22:20Z
TLE epoch observation values (Epoch: 2026-06-23T22:20:30.515Z)
Latitude
60.84521°
Longitude
-63.22256°
Altitude
901.946 km
Speed
7.414 km/s
True Right ascension
12h 15m 59s
True Declination
60° 42' 06"
Sunlit
Object was in daylight at epoch
Visualization orbit readout
Latitude
Unknown
Longitude
Unknown
Altitude
Unknown
Speed
Unknown
Apparent Right ascension
Unknown
Apparent Declination
Unknown
Sunlit
N/A
Visualization observer readout
Local Sidereal Time
19:41:15
Azimuth
Unknown
Elevation
Unknown
Doppler factor
Unknown
Orbital elements
Apogee altitude
916.894 km
Perigee altitude
889.936 km
Semi-major axis
7,281.552 km
Eccentricity
0.00185
Inclination
70.0783°
RAAN
143.7387°
Arg. of periapsis
56.5804°
True anomaly
11.52984°
Mean anomaly
11.4875°
Eccentric anomaly
11.50866°
Mean motion
3.49307 °/min
Orbital period
103.06 mins
BSTAR
0.000067159
Loading maneuver chart data...
Computing Atmospheric mass density...
Loading historical data...
Loading historical data...
Loading historical data...
Loading historical data...
Loading historical data...
Loading historical data...
Loading historical data...

Documentation

Showing up to 5 results
|